Location: Unspecified
(34.1750°S, 150.8048°E)
Time: 00:33:31
(UTC+10:00)

Tiangong 2 - Visible Passes

Search period start: 21 September 2018 00:00
Search period end: 01 October 2018 00:00
Orbit: 384 x 394 km, 42.8° (Epoch: 20 September)

Date Brightness Start Highest point End Pass type
(mag) Time Alt. Az. Time Alt. Az. Time Alt. Az.
21 Sep 4.7 03:20:51 11° SE 03:20:51 11° SE 03:21:00 10° SE visible
21 Sep 2.2 04:53:09 12° SW 04:56:01 42° SSE 04:59:07 10° E visible
22 Sep 2.9 03:57:55 28° SSE 03:57:55 28° SSE 04:00:40 10° E visible
23 Sep 1.1 04:35:07 27° SW 04:36:42 79° SSE 04:39:56 10° ENE visible
24 Sep 3.5 03:40:07 24° E 03:40:07 24° E 03:41:40 10° E visible
24 Sep 2.4 05:12:34 10° W 05:15:16 24° NW 05:17:57 10° NNE visible
25 Sep 1.6 04:17:37 45° N 04:17:37 45° N 04:20:22 10° NE visible
26 Sep 3.3 04:55:19 12° NW 04:55:38 12° NW 04:56:50 10° NNW visible
28 Sep 3.3 19:29:50 10° NNW 19:30:46 16° NNW 19:30:46 16° NNW visible
29 Sep 3.0 18:32:39 10° N 18:34:43 16° NE 18:36:18 12° ENE visible
29 Sep 4.1 20:08:06 10° WNW 20:08:40 14° WNW 20:08:40 14° WNW visible
30 Sep 1.0 19:09:56 10° NW 19:13:08 68° NNE 19:14:01 42° E visible
